Weather History for KSFY - February, 2014

Change the Weather History Date:

Monday, February 24, 2014

  Actual Average (KCWI) Record (KCWI)
Temperature  
Mean Temperature 14 °F -  
Max Temperature 20 °F 37 °F 71 °F (2011)
Min Temperature 9 °F 21 °F -11 °F (1993)
Degree Days  
Heating Degree Days 50    
Moisture  
Dew Point 6 °F    
Average Humidity 66    
Maximum Humidity 85    
Minimum Humidity 53    
Precipitation  
Precipitation 0.00 in - - ()
Sea Level Pressure  
Sea Level Pressure 30.29 in    
Wind  
Wind Speed 6 mph (West)    
Max Wind Speed 13 mph    
Max Gust Speed 17 mph    
Visibility 10 miles    
Events Snow    
Averages and records for this station are not official NWS values.
T = Trace of Precipitation, MM = Missing Value Source: NWS Daily Summary

Daily Weather History Graph

Daily Weather History Graph

Search for Another Location

Airport or City:

Trip Planner

Search our weather history database for the weather conditions in past years. The results will help you decide how hot, cold, wet, or windy it might be!

Date:

Astronomy

Feb. 24, 2014 Rise Set
Actual Time 6:43 AM CST 5:44 PM CST
Civil Twilight 6:15 AM CST 6:12 PM CST
Nautical Twilight 5:42 AM CST 6:45 PM CST
Astronomical Twilight 5:10 AM CST 7:17 PM CST
Moon 2:45 AM CST (2/24) 12:42 PM CST (2/24)
Length of Visible Light 11h 57m
Length of Day
11h 01m
Waning Crescent, 28% of the Moon is Illuminated
Feb 24
Waning Crescent
Mar 1
New
Mar 8
First Quarter
Mar 16
Full
Mar 23
Last Quarter

Hourly Weather History & Observations

Time (CST) Temp. Windchill Dew Point Humidity Pressure Visibility Wind Dir Wind Speed Gust Speed Precip Events Conditions
12:15 AM 13.6 °F 4.6 °F 5.9 °F 71% 30.28 in 10.0 mi West 5.8 mph - N/A   Clear
12:35 AM 13.5 °F 5.8 °F 6.3 °F 73% 30.27 in 10.0 mi WNW 4.6 mph - N/A   Clear
12:55 AM 13.5 °F 4.4 °F 6.4 °F 74% 30.27 in 10.0 mi WNW 5.8 mph - N/A   Clear
1:15 AM 13.6 °F 6.0 °F 6.6 °F 74% 30.28 in 10.0 mi West 4.6 mph - N/A   Clear
1:35 AM 13.6 °F 4.6 °F 6.4 °F 73% 30.28 in 10.0 mi West 5.8 mph - N/A   Clear
1:55 AM 13.1 °F 2.8 °F 6.1 °F 74% 30.27 in 10.0 mi West 6.9 mph - N/A   Clear
2:15 AM 13.1 °F 2.8 °F 6.3 °F 74% 30.27 in 10.0 mi West 6.9 mph - N/A   Clear
2:35 AM 12.9 °F 3.8 °F 6.1 °F 74% 30.27 in 10.0 mi West 5.8 mph - N/A   Clear
2:55 AM 12.9 °F 2.6 °F 6.1 °F 74% 30.27 in 10.0 mi West 6.9 mph - N/A   Clear
3:15 AM 12.2 °F 2.9 °F 5.9 °F 76% 30.26 in 10.0 mi West 5.8 mph - N/A   Clear
3:35 AM 12.2 °F 4.3 °F 5.9 °F 76% 30.26 in 10.0 mi West 4.6 mph - N/A   Clear
3:55 AM 12.2 °F - 5.7 °F 75% 30.26 in 10.0 mi Calm Calm - N/A   Clear
4:15 AM 11.8 °F - 5.2 °F 75% 30.28 in 10.0 mi Calm Calm - N/A   Clear
4:35 AM 11.3 °F -0.4 °F 4.8 °F 75% 30.29 in 10.0 mi West 8.1 mph - N/A   Clear
4:55 AM 11.3 °F 1.9 °F 4.5 °F 74% 30.29 in 10.0 mi West 5.8 mph - N/A   Clear
5:15 AM 11.3 °F -0.4 °F 4.1 °F 73% 30.29 in 10.0 mi West 8.1 mph - N/A   Clear
5:35 AM 10.9 °F 0.2 °F 3.9 °F 73% 30.29 in 10.0 mi West 6.9 mph - N/A   Clear
5:55 AM 10.4 °F 4.0 °F 3.7 °F 74% 30.28 in 10.0 mi West 3.5 mph - N/A   Clear
6:15 AM 10.2 °F 2.0 °F 3.2 °F 73% 30.29 in 10.0 mi West 4.6 mph - N/A   Clear
6:35 AM 10.2 °F - 3.2 °F 73% 30.29 in 10.0 mi Calm Calm - N/A   Clear
6:55 AM 9.9 °F - 2.7 °F 73% 30.30 in 10.0 mi Calm Calm - N/A   Clear
7:15 AM 9.9 °F 1.6 °F 2.7 °F 73% 30.30 in 10.0 mi WNW 4.6 mph - N/A   Clear
7:35 AM 9.9 °F 0.2 °F 2.3 °F 71% 30.30 in 10.0 mi NW 5.8 mph - N/A   Clear
7:55 AM 10.4 °F -0.4 °F 2.3 °F 70% 30.31 in 10.0 mi NW 6.9 mph - N/A   Clear
8:15 AM 11.1 °F -0.6 °F 2.3 °F 68% 30.31 in 10.0 mi NW 8.1 mph - N/A   Clear
8:35 AM 12.4 °F 2.0 °F 2.3 °F 64% 30.32 in 10.0 mi WNW 6.9 mph - N/A   Clear
8:50 AM 13.5 °F 1.3 °F 2.5 °F 62% 30.31 in 10.0 mi NW 9.2 mph - N/A   Clear
9:15 AM 14.4 °F 0.2 °F 1.8 °F 57% 30.31 in 10.0 mi NW 12.7 mph - N/A   Clear
9:35 AM 14.9 °F 4.0 °F 2.3 °F 57% 30.32 in 10.0 mi West 8.1 mph - N/A   Clear
9:55 AM 15.8 °F 6.1 °F 2.1 °F 55% 30.33 in 10.0 mi WNW 6.9 mph - N/A   Clear
10:15 AM 16.7 °F 7.2 °F 2.8 °F 55% 30.33 in 10.0 mi West 6.9 mph - N/A   Clear
10:35 AM 16.7 °F 7.2 °F 3.4 °F 56% 30.34 in 10.0 mi WSW 6.9 mph - N/A   Clear
10:55 AM 16.7 °F 5.3 °F 3.4 °F 56% 30.34 in 10.0 mi WSW 9.2 mph - N/A   Clear
11:15 AM 17.4 °F 4.7 °F 3.6 °F 55% 30.34 in 10.0 mi WSW 11.5 mph 16.1 mph N/A   Clear
11:35 AM 18.0 °F 5.4 °F 3.6 °F 53% 30.34 in 10.0 mi West 11.5 mph 17.3 mph N/A   Clear
11:55 AM 17.6 °F 5.0 °F 5.7 °F 60% 30.33 in 10.0 mi WSW 11.5 mph - N/A   Clear
12:15 PM 18.0 °F 7.7 °F 5.4 °F 58% 30.33 in 10.0 mi West 8.1 mph - N/A   Scattered Clouds
12:35 PM 18.5 °F 6.1 °F 5.4 °F 57% 30.32 in 10.0 mi WSW 11.5 mph - N/A   Clear
12:55 PM 19.2 °F 8.4 °F 7.0 °F 59% 30.32 in 10.0 mi West 9.2 mph 16.1 mph N/A   Scattered Clouds
1:15 PM 19.6 °F 8.1 °F 6.8 °F 58% 30.31 in 10.0 mi West 10.4 mph - N/A   Scattered Clouds
1:35 PM 19.8 °F 8.3 °F 6.8 °F 57% 30.31 in 10.0 mi West 10.4 mph - N/A   Mostly Cloudy
1:55 PM 19.6 °F 8.9 °F 5.7 °F 55% 30.30 in 10.0 mi West 9.2 mph - N/A   Overcast
2:15 PM 20.3 °F 10.6 °F 6.4 °F 55% 30.29 in 10.0 mi West 8.1 mph - N/A   Mostly Cloudy
2:35 PM 20.3 °F 9.8 °F 6.3 °F 55% 30.29 in 10.0 mi West 9.2 mph - N/A   Clear
2:55 PM 20.7 °F 10.2 °F 6.1 °F 53% 30.29 in 10.0 mi West 9.2 mph - N/A   Clear
3:15 PM 20.8 °F 9.7 °F 7.3 °F 56% 30.28 in 10.0 mi West 10.4 mph - N/A   Scattered Clouds
3:35 PM 20.7 °F 9.5 °F 8.1 °F 58% 30.28 in 10.0 mi West 10.4 mph - N/A   Mostly Cloudy
3:55 PM 20.3 °F 9.0 °F 5.9 °F 54% 30.28 in 10.0 mi WNW 10.4 mph - N/A   Overcast
4:15 PM 20.1 °F 9.5 °F 6.6 °F 56% 30.28 in 10.0 mi West 9.2 mph - N/A   Overcast
4:35 PM 19.4 °F 9.5 °F 6.3 °F 57% 30.27 in 10.0 mi West 8.1 mph - N/A   Overcast
4:55 PM 19.2 °F 9.3 °F 6.3 °F 57% 30.26 in 10.0 mi West 8.1 mph - N/A   Overcast
5:15 PM 18.9 °F 12.1 °F 5.9 °F 57% 30.26 in 10.0 mi West 4.6 mph - N/A   Mostly Cloudy
5:35 PM 18.5 °F 9.3 °F 5.9 °F 58% 30.26 in 10.0 mi West 6.9 mph - N/A   Mostly Cloudy
5:55 PM 18.1 °F 8.9 °F 5.9 °F 59% 30.26 in 10.0 mi West 6.9 mph - N/A   Mostly Cloudy
6:15 PM 18.1 °F 8.9 °F 6.4 °F 60% 30.27 in 10.0 mi West 6.9 mph - N/A   Overcast
6:35 PM 18.0 °F 9.8 °F 7.2 °F 63% 30.26 in 10.0 mi West 5.8 mph - N/A   Mostly Cloudy
6:55 PM 17.6 °F 10.7 °F 6.6 °F 62% 30.26 in 10.0 mi West 4.6 mph - N/A   Mostly Cloudy
7:15 PM 17.4 °F 9.1 °F 6.4 °F 62% 30.26 in 10.0 mi West 5.8 mph - N/A   Overcast
7:35 PM 17.4 °F 10.4 °F 6.8 °F 63% 30.27 in 10.0 mi West 4.6 mph - N/A   Overcast
7:55 PM 17.4 °F 8.0 °F 7.2 °F 64% 30.27 in 10.0 mi WNW 6.9 mph - N/A   Overcast
8:15 PM 17.2 °F 6.0 °F 7.3 °F 65% 30.26 in 10.0 mi WNW 9.2 mph - N/A   Overcast
8:35 PM 16.7 °F 9.6 °F 7.3 °F 67% 30.26 in 10.0 mi West 4.6 mph - N/A   Overcast
8:50 PM 16.7 °F 8.3 °F 7.5 °F 67% 30.26 in 10.0 mi WNW 5.8 mph - N/A   Overcast
9:15 PM 16.7 °F 9.6 °F 7.7 °F 68% 30.26 in 10.0 mi West 4.6 mph - N/A   Overcast
9:35 PM 16.7 °F 9.6 °F 7.7 °F 68% 30.26 in 10.0 mi West 4.6 mph - N/A   Overcast
9:55 PM 17.1 °F 5.8 °F 7.5 °F 66% 30.28 in 10.0 mi WNW 9.2 mph - N/A   Overcast
10:15 PM 16.7 °F 6.2 °F 8.4 °F 70% 30.28 in 7.0 mi West 8.1 mph - N/A Snow Light Snow
10:35 PM 16.3 °F 5.7 °F 9.3 °F 74% 30.28 in 2.5 mi WNW 8.1 mph - N/A Snow Light Snow
10:55 PM 15.8 °F 6.1 °F 11.3 °F 82% 30.28 in 2.5 mi West 6.9 mph - N/A Snow Light Snow
11:15 PM 15.4 °F 8.1 °F 11.3 °F 84% 30.28 in 2.5 mi West 4.6 mph - N/A Snow Light Snow
11:35 PM 15.4 °F 4.6 °F 11.7 °F 85% 30.28 in 2.5 mi West 8.1 mph - N/A Snow Light Snow
11:55 PM 15.4 °F 5.6 °F 11.3 °F 84% 30.28 in 5.0 mi WNW 6.9 mph - N/A Snow Light Snow